Location: Monrovia
(34.7865°N, 86.7139°W)
Time: 00:42:00
(UTC+00:00)

Cosmos 1538 Rocket - Pass Details

Date: 14 July 2020
Orbit: 753 x 791 km, 74.0° (Epoch: 12 August)

Event Time Altitude Azimuth Distance (km) Brightness Sun altitude
Rises 01:48:26 0° 199° (SSW) 3,268 7.1 -9.1°
Reaches altitude 10° 01:50:49 10° 200° (SSW) 2,341 6.4 -9.5°
Maximum altitude 01:56:09 79° 287° (WNW) 801 4.2 -10.4°
Drops below altitude 10° 02:01:29 10° 15° (NNE) 2,335 6.8 -11.3°
Sets 02:03:52 0° 16° (NNE) 3,260 7.5 -11.7°
